sat.trackr.live / text

‹ back to catalog

LILIUM-2

NORAD 66679 · 2025-276P

PAYLOAD ACTIVE UNKNOWN

§ Identity

Operator
Country
ROC
Launch date
2025-11-28
Launch site
AFWTR
Launch vehicle
Mass (kg)
RCS (m²)

External: N2YO · Heavens-Above · Gunter

§ Orbital elements

Epoch: 2026-09-20T22:36:08.773344Z

Period
94.84 min
Inclination
97.4070°
Eccentricity
0.0006964
Mean motion
15.18378637 rev/d
Perigee alt
505.9 km
Apogee alt
515.5 km
Semi-major
6,888.9 km
B*
9.6164e-5
RAAN
335.0460°
Arg perigee
44.9917°
Mean anomaly
315.1880°
Rev number
4,492

§ Raw data

LILIUM-21 66679U 25276P   26263.94176821  .00001910  00000+0  96164-4 0  99932 66679  97.4070 335.0460 0006964  44.9917 315.1880 15.18378637 44927

JSON: /api/v1/satellites/66679 · /tle

For live sub-satellite position, see the globe view (requires WebGL).

§ Visibility from observer

Set your observer location to see the next 7 days of passes ≥ 10°. The values pass through the URL so the page stays shareable.

No JS? Fill the form by hand. The geolocation button needs JavaScript.